Simultaneous Nadir Overpasses (SNOs) Predictions

Prediction of SNOs between NOAA-19 and NPP Satellite Orbit:

Table of predicted SNOs for the next 14.0 days since TLE Epoch: 6/16/2017
Index Date (NOAA-19) Time (NOAA-19) Lat,Lon (NOAA-19) SZA (NOAA-19 ) Date (NPP) Time (NPP) Lat,Lon (NPP) SZA (NPP ) Distance(km) Time Diff (sec)
1 06/19/2017 23:30:11 80.83, 137.44 60.91 06/19/2017 23:31:24 80.82, 137.35 60.88 1.83 73
2 06/20/2017 00:21:12 -80.83, -55.55 119.07 06/20/2017 00:22:09 -80.83, -55.47 119.11 1.53 57
3 06/20/2017 01:12:13 80.83, 111.78 60.93 06/20/2017 01:12:54 80.82, 111.94 60.88 2.80 41
4 06/20/2017 02:03:13 -80.83, -80.85 119.09 06/20/2017 02:03:39 -80.83, -80.88 119.10 0.62 26
5 06/20/2017 02:54:14 80.83, 86.49 60.90 06/20/2017 02:54:24 80.83, 86.52 60.89 0.96 10
6 06/20/2017 03:45:14 -80.84,-106.14 119.12 06/20/2017 03:45:09 -80.83,-106.30 119.10 2.73 5
7 06/20/2017 04:36:14 80.84, 61.20 60.88 06/20/2017 04:35:53 80.83, 61.11 60.89 2.02 21
8 06/20/2017 05:27:15 -80.83,-131.80 119.10 06/20/2017 05:26:38 -80.84,-131.71 119.09 1.73 37
9 06/20/2017 06:18:16 80.83, 35.55 60.89 06/20/2017 06:17:23 80.83, 35.70 60.90 2.67 53




NCC Satellite Simultaneous Nadir Overpasses (SNOs) Prediction Service
